Location: Boston
(42.3580°N, 71.0600°W)
Time: 20:41:41
(UTC-05:00)

ISS - Visible Passes

Search period start: 18 December 2018 00:00
Search period end: 28 December 2018 00:00
Orbit: 401 x 408 km, 51.6° (Epoch: 19 December)

Date Brightness Start Highest point End Pass type
(mag) Time Alt. Az. Time Alt. Az. Time Alt. Az.
21 Dec -0.6 06:31:42 10° S 06:33:59 18° SE 06:36:17 10° E visible
23 Dec -2.3 06:22:41 10° SSW 06:25:48 41° SE 06:28:55 10° ENE visible
24 Dec -1.2 05:31:06 10° S 05:33:43 22° SE 05:36:20 10° E visible
25 Dec -0.6 04:40:23 10° SSE 04:41:41 12° SE 04:43:00 10° ESE visible
25 Dec -3.9 06:14:26 10° WSW 06:17:43 83° NNW 06:21:01 10° NE visible
26 Dec -3.1 05:24:09 29° SSW 05:25:29 52° SE 05:28:42 10° ENE visible
27 Dec -1.0 04:34:51 19° E 04:34:51 19° E 04:36:12 10° ENE visible
27 Dec -3.3 06:07:33 17° W 06:09:43 40° NNW 06:12:52 10° NE visible
